Weather in Kaleyevo

Russia / Mari El Republic     56°59′04″N   49°30′43″E
temp.,
°C
wind,
m/s
gust,
m/s
humid.,
%
clouds,
%
prec.,
mm/h
press.,
hPa
HPBL,
m
28 february, sun
sun2800:00−19n499661 0.0 1007157
03:00−20n499837 0.0 1008158
06:00−20n489877 0.0 1009151
09:00−19n479564 0.0 1010245
12:00−15n479166 0.0 1011382
15:00−14n589079 0.0 1012521
18:00−18n349690 0.0 101470
21:00−20n349864 0.0 101643
1 march, mon
mon100:00−21n34980 0.0 101839
03:00−23nnw33970 0.0 102032
06:00−23nnw23960 0.0 102020
09:00−19nw12920 0.0 102183
12:00−15w23870 0.0 1020257
15:00−13wsw35914 0.0 1019297
18:00−14ssw489564 0.0 1016165
21:00−12ssw599582 0.0 1014265
2 march, tue
tue200:00−10ssw71294100 0.4 1009384
03:00−6sw71494100 1.9 1004550
06:00−4sw71395100 1.1 1000546
09:000wsw61098100 2.4 998550
12:000w510100100 0.8 996696
15:000w51094100 1.0 996707
18:00−1nnw51093100 0.7 997529
21:00−3wnw489896 0.8 998222
3 march, wed
wed300:00−3wnw4109692 0.2 999353
03:00−7wnw599591 0.3 1000269
06:00−7nw5109697 0.1 1001344
09:00−8nw599498 0.1 1003433
12:00−6nw5990100 0.0 1004537
15:00−5wnw599192 0.1 1004551
18:00−9wnw499493 0.0 1005164
21:00−8wnw4109493 0.1 1006326
4 march, thu
thu400:00−7w5119399 0.2 1004414
03:00−8wsw51094100 0.3 1004319
06:00−10sw499689 0.1 1002203
09:00−7sw5109393 0.1 1000361
12:00−5ssw71292100 0.2 996644
15:00−3ssw91594100 0.8 991900
18:00−1sw91690100 0.9 9881099
21:00−3w81482100 1.5 988918